Location: Wyoming Infrared Observatory
(41.0971°N, 105.9765°W)
Time: 08:16:58
(UTC-07:00)

Daily predictions for brighter satellites

Satellite Brightness Start Highest point End
(mag) Time Altitude Azimuth Time Altitude Azimuth Time Altitude Azimuth
Cosmos 2058 2.9 17:36:56 10° S 17:40:58 62° E 17:45:01 10° NNE
Cosmos 1726 2.4 17:38:37 10° N 17:42:24 77° W 17:46:10 10° S
Cosmos 2219 Rocket 3.5 17:39:12 10° SW 17:44:27 39° WNW 17:49:43 10° N
USA 229 DEB 4.4 17:38:41 10° S 17:44:44 35° ESE 17:50:52 10° NE
USA 229 4.4 17:38:49 10° S 17:44:50 34° ESE 17:50:57 10° NE
Meteor 1-11 4.3 17:42:22 10° S 17:48:03 77° E 17:53:51 10° NNE
Cosmos 1461 2.8 17:46:39 10° SSW 17:50:50 88° SE 17:54:56 10° NNE
Lacrosse 5 rocket 2.8 17:47:47 10° WNW 17:51:21 39° SW 17:55:05 10° SSE
Tiangong 1 3.2 17:50:20 10° S 17:52:07 15° SSE 17:53:54 10° ESE
Cosmos 2279 Rocket 4.0 17:46:27 10° N 17:52:40 73° E 17:58:53 10° SSE
Cosmos 1242 Rocket 4.3 17:51:51 10° NE 17:53:23 12° ENE 17:54:56 10° E
Cosmos 304 Rocket 3.7 17:48:42 10° SSW 17:53:30 79° ESE 17:58:20 10° NNE
Cosmos 2333 Rocket 3.5 17:50:19 10° SW 17:55:36 41° WNW 18:00:57 10° N
Cosmos 1455 3.0 17:52:36 10° NNE 17:55:59 29° ENE 17:59:22 10° SE
BREEZE-M DEB (TANK) 1.9 17:54:36 10° WSW 17:57:31 49° NNW 17:59:20 13° NE
Aureole 1 Rocket 4.4 17:53:34 10° SSE 17:58:39 39° E 18:05:08 10° NNE
Cosmos 1805 Rocket 3.6 17:54:45 10° S 17:59:08 59° E 18:03:32 10° NNE
Cosmos 1356 Rocket 3.6 17:56:22 10° SSE 18:00:08 43° E 18:03:57 10° NNE
Cosmos 2278 Rocket 3.4 17:55:32 10° NW 18:00:57 47° WSW 18:06:20 10° S
SKYMED 2 3.6 17:58:46 10° NNE 18:03:05 63° E 18:07:23 10° S
Cosmos 2242 Rocket 4.4 18:03:23 10° NNE 18:07:17 29° ENE 18:11:11 10° SE
Coronas F rocket 2.3 18:05:52 10° SSE 18:07:48 22° E 18:08:11 21° ENE
Sich 1 3.3 18:05:32 10° SSE 18:09:48 49° E 18:14:05 10° NNE
Thor Agena Rocket 4.2 18:05:32 10° N 18:10:40 59° WNW 18:15:43 10° SSW
Cosmos 1538 Rocket 4.0 18:05:48 10° S 18:11:04 75° ESE 18:16:27 10° NNE
Cosmos 1703 3.2 18:07:39 10° S 18:11:33 84° E 18:15:28 10° N
Nadezhda 4 Rocket 4.1 18:05:38 10° SSE 18:11:41 54° E 18:17:50 10° NNE
BREEZE M DEB (TANK) 1.0 18:09:40 10° WNW 18:12:17 75° NNE 18:13:45 17° ESE
Cosmos 923 Rocket 4.5 18:14:12 10° SSE 18:18:58 38° ESE 18:23:24 12° NE
SJ-6B 3.4 18:16:09 10° SE 18:19:56 37° ENE 18:23:47 10° N
Cosmos 1633 Rocket 3.1 18:17:23 10° S 18:21:43 59° E 18:26:02 10° NNE
Cosmos 2237 Rocket 3.8 18:19:27 10° WSW 18:24:26 31° WNW 18:29:27 10° N
CZ-4 R/B 4.4 18:21:46 10° SW 18:24:33 19° W 18:27:21 10° NW
Cosmos 1680 Rocket 4.2 18:20:22 10° SSE 18:24:59 33° E 18:28:11 18° NE
Cosmos 2369 Rocket 3.3 18:23:13 10° N 18:27:41 23° NE 18:28:57 22° ENE
BREEZE-M DEB (TANK) 2.7 18:27:14 10° SSW 18:28:48 30° SE 18:29:02 30° SE
SL-16 R/B 2.8 18:27:53 10° SW 18:33:27 59° WNW 18:39:03 10° NNE
Lacrosse 5 3.8 18:31:24 10° NNW 18:34:07 14° N 18:35:34 13° NNE
Cosmos 1092 Rocket 4.0 18:28:57 10° S 18:35:09 60° E 18:41:23 10° NNE
NOSS 3-1 (C) 4.2 18:31:06 10° SSE 18:35:53 28° ESE 18:37:28 24° E
Abrixas 4.2 18:35:05 10° WNW 18:37:24 20° N 18:37:53 20° N
Meteor 1-28 Rocket 3.6 18:36:41 10° N 18:40:22 64° WNW 18:44:03 10° SSW
ALOS 2.7 18:36:14 10° SE 18:40:32 39° ENE 18:44:53 10° N
Cosmos 773 Rocket 4.0 18:37:01 10° SSW 18:42:12 87° WNW 18:47:27 10° NNE
BREEZE-M DEB (TANK) 2.8 18:42:13 10° W 18:44:26 42° NNW 18:44:55 37° N
Cosmos 1862 Rocket 3.8 18:41:48 10° N 18:45:59 42° ENE 18:50:06 10° SSE
Cosmos 2084 Rocket 4.4 18:43:27 10° NNW 18:45:56 25° NNE 18:45:56 25° NNE
USA 215 3.4 18:44:05 23° ESE 18:48:13 56° NE 18:54:36 10° NW
Genesis I 4.5 18:45:14 10° S 18:47:46 25° SE 18:47:46 25° SE
Cosmos 292 Rocket 3.6 18:45:35 10° S 18:50:17 67° ESE 18:52:59 25° NNE
METEOR-M 4.1 18:45:30 10° SSE 18:50:52 86° WSW 18:56:15 10° NNW
COSMO-SKYMED 1 4.0 18:47:02 10° N 18:51:03 38° WNW 18:55:03 10° SW
FENGYUN 3A 3.7 18:47:59 10° SSE 18:53:10 53° ENE 18:58:25 10° N
CZ-3A R/B 2.7 18:48:36 10° NW 18:53:15 85° NE 19:00:05 10° SE
NOAA 12 4.3 18:50:16 10° S 18:55:29 72° WSW 19:00:46 10° NNW
Cosmos 2195 Rocket 4.4 18:51:20 10° S 18:57:17 57° E 19:03:19 10° NNE
Cosmos 1869 3.5 18:55:51 10° NNW 18:59:54 73° W 19:03:55 10° S
Cosmos 2112 Rocket 3.9 18:56:37 10° S 19:01:44 62° ESE 19:03:43 36° NE
Cosmos 1626 4.3 19:00:51 10° SW 19:04:02 26° WNW 19:07:16 10° NNW
Lacrosse 4 Rocket 1.9 19:01:30 10° NW 19:05:29 55° WSW 19:09:27 10° SSE
Blok-2BL 4.2 19:03:19 10° NW 19:05:30 38° NNW 19:05:30 38° NNW
Cosmos 1943 3.4 19:04:57 10° S 19:10:20 48° ESE 19:10:29 48° ESE
Cosmos 1933 Rocket 3.5 19:05:53 10° S 19:10:20 89° W 19:12:40 28° N
ATLAS 5 CENTAUR R/B 3.5 19:07:03 10° NNW 19:11:05 26° NNE 19:11:05 26° NNE
Resurs 01 Rocket 1.5 19:10:37 10° SSE 19:15:03 81° ENE 19:19:32 10° N
Cosmos 1417 Rocket 4.3 19:17:44 10° N 19:23:54 64° E 19:29:57 10° SSE
Tiangong 1 3.6 19:24:52 10° WSW 19:25:53 19° WSW 19:25:53 19° WSW
Cosmos 1242 Rocket 4.1 19:25:22 10° NNW 19:28:33 34° W 19:31:44 10° SSW
Cosmos 1943 Rocket 3.7 19:23:58 10° N 19:26:07 21° N 19:26:07 21° N
Iridium 4 Rocket 4.3 19:25:48 10° SSW 19:29:57 40° W 19:33:56 10° NNW
Spot 2 Rocket 3.6 19:26:54 10° S 19:31:56 73° WSW 19:36:59 10° NNW
USA 229 DEB 4.4 19:28:50 10° WSW 19:35:27 50° NW 19:39:27 24° NNE
USA 229 4.4 19:28:55 10° WSW 19:35:33 50° NW 19:39:31 25° NNE
Cosmos 1655 Rocket 3.9 19:30:08 10° S 19:36:32 87° E 19:42:54 10° N
CZ-4C R/B 3.8 19:37:05 10° NNW 19:41:36 29° NNE 19:41:36 29° NNE
NOSS 3-1 (A) 3.7 19:43:12 10° SSW 19:47:36 54° S 19:47:36 54° S
S3M 4.4 19:52:14 10° N 19:56:53 52° N 19:56:53 52° N
Cosmos 2369 Rocket 3.1 20:06:33 10° NNW 20:10:49 45° WNW 20:10:49 45° WNW
Lacrosse 5 4.3 20:13:55 10° NNW 20:14:47 14° NNW 20:14:47 14° NNW
NOSS 3-1 (C) 4.4 20:20:37 10° WSW 20:24:57 43° W 20:24:57 43° W
USA 215 4.0 20:31:27 45° SW 20:31:27 45° SW 20:37:31 10° WNW
